Home > Weather > Barquisimeto > Past weeks

Flag for Venezuela Past Weather in Barquisimeto, Venezuela — Yesterday and Last 2 Weeks

Now
72 °F

Passing clouds.


Feels Like: 71 °F
Forecast: 67 / 88 °F
Wind: 2 mph from East

Location: Barquisimeto Airport

Current Time: Jul 24, 2016 at 4:53:39 AM

Latest Report: Jul 24, 2016 at 2:00 AM


Visibility: N/A

Pressure: 30.01 "Hg (28.10 "Hg at 569m altitude)

Humidity: 83%

Dew Point: 66 °F

Location of BarquisimetoLocation

Past Weather in Barquisimeto — Graph

°F

Barquisimeto Temperature Yesterday

Maximum temperature yesterday: 84 °F (at 2:00 PM)
Minimum temperature yesterday: 70 °F (at 5:00 AM)
Average temperature yesterday: 76 °F

High & Low Weather Summary for the Past Weeks

 TemperatureHumidityPressure
High90 °F (Jul 22, 3:00 PM)94% (Jul 13, 6:00 AM)30.15 "Hg (Jul 13, 6:00 AM)
Low68 °F (Jul 18, 7:00 AM)33% (Jul 18, 5:00 PM)29.95 "Hg (Jul 12, 5:00 PM)
Average77 °F71%30.03 "Hg
* Reported Jul 9 2:00 AM — Jul 24 2:00 AM, Barquisimeto, Weather by CustomWeather, © 2016

Note: Actual official high and low records may vary slightly from our data, if they occured in-between our weather recording intervals... More about our weather records

Advertising

Barquisimeto Weather History for the Previous 24 Hours

Scroll right to see more
 ConditionsComfort  
Time TempWeatherWind HumidityBarometerVisibility
2:00 AM
Sun, Jul 24
72 °FPassing clouds.2 mph83%30.01 "HgN/A
11:00 PM
Sat, Jul 23
72 °FPassing clouds.8 mph88%30.04 "HgN/A
10:00 PM73 °FPassing clouds.9 mph83%30.04 "HgN/A
9:00 PM73 °FPassing clouds.9 mph78%30.01 "HgN/A
8:00 PM75 °FPassing clouds.12 mph74%29.98 "HgN/A
7:00 PM77 °FPassing clouds.12 mph74%29.98 "HgN/A
6:00 PM79 °FScattered clouds.14 mph61%29.98 "HgN/A
5:00 PM82 °FScattered clouds.16 mph58%29.98 "HgN/A
4:00 PM82 °FScattered clouds.13 mph58%29.98 "HgN/A
3:00 PM82 °FScattered clouds.14 mph62%29.98 "HgN/A
2:00 PM84 °FScattered clouds.12 mph58%30.01 "HgN/A
1:00 PM82 °FBroken clouds.15 mph62%30.04 "HgN/A
12:00 PM81 °FBroken clouds.12 mph66%30.04 "HgN/A
11:00 AM77 °FFog.12 mph74%30.07 "HgN/A
10:00 AM75 °FFog.9 mph83%30.07 "Hg5 mi
9:00 AM72 °FDrizzle. Partly sunny.7 mph83%30.07 "Hg5 mi
8:00 AM70 °FScattered clouds.3 mph94%30.04 "HgN/A
7:00 AM70 °FScattered clouds.3 mph94%30.04 "HgN/A
6:00 AM72 °FScattered clouds.5 mph88%30.01 "HgN/A
5:00 AM70 °FPassing clouds.3 mph88%30.04 "HgN/A
Weather by CustomWeather, © 2016

See weather overviewHow to use our weather pages